Theta_e
299 295 294 303 313 318 324 331 331 331 337 334 334 343 342 342 343 346 347 350 354 360 360 360 359 361 361 361 361 360 359 358
297 293 299 309 315 324 324 330 336 334 329 337 345 345 347 348 351 347 349 351 357 359 359 359 358 359 359 359 359 359 358 358
294 295 306 316 320 325 325 329 330 333 330 333 345 350 352 350 350 348 349 353 353 359 359 359 358 358 358 358 357 356 357 356
290 293 312 316 323 327 326 328 332 332 332 333 347 347 348 349 347 349 350 352 353 359 359 359 359 358 357 357 356 356 356 356
292 295 309 316 323 323 320 318 327 336 330 335 342 347 349 347 348 350 350 351 353 355 357 359 359 358 358 357 357 357 356 355
291 294 297 318 321 322 322 320 331 339 328 329 341 349 347 347 345 344 347 350 350 352 352 350 352 359 358 357 355 352 351 349
293 295 311 318 316 321 326 324 328 329 337 341 344 349 345 341 339 341 344 346 348 349 346 347 347 353 354 354 351 350 341 341
301 305 317 319 316 320 322 324 329 332 337 341 345 341 337 338 337 338 339 342 344 344 344 341 345 343 339 342 338 327 324 323
305 304 318 319 319 321 326 324 330 329 332 337 339 330 329 336 333 326 331 330 338 343 342 335 335 335 334 336 328 322 324 323
305 304 313 317 321 324 325 327 334 334 335 334 331 328 327 323 318 316 319 320 322 324 320 321 326 324 322 328 325 324 322 323
304 303 304 315 313 318 324 332 334 335 334 332 323 323 323 319 317 317 317 321 323 325 323 323 321 321 321 320 322 323 324 324
303 301 304 311 315 321 326 331 330 331 328 321 315 315 316 317 316 316 319 321 323 323 322 322 322 322 324 322 323 326 325 323
302 302 303 310 312 318 326 328 326 326 326 316 316 317 317 317 316 319 321 322 323 324 322 321 322 322 323 326 325 323 324 325
300 303 306 308 300 315 324 323 322 322 322 315 315 316 317 319 319 319 321 321 322 330 325 324 324 325 326 325 326 326 325 327
299 303 306 306 301 316 314 320 317 317 315 314 314 316 319 321 322 322 323 322 323 325 325 325 326 327 329 328 328 328 326 325
295 300 301 301 303 306 311 315 315 314 314 313 313 317 319 322 323 323 324 324 324 324 324 328 329 328 329 328 327 324 320 321
300 303 301 302 301 304 307 312 313 313 313 312 313 318 320 322 323 323 323 322 324 326 326 329 330 327 325 322 321 318 317 319
300 303 299 298 300 302 304 308 312 312 312 313 313 314 320 320 323 323 322 324 327 327 325 324 323 323 321 319 318 315 314 314
298 301 301 298 296 299 304 306 308 313 315 314 314 314 318 321 320 323 326 328 324 321 320 319 318 317 317 315 313 311 311 311
301 297 291 298 289 295 300 302 304 309 308 312 314 316 319 320 326 327 326 324 322 320 318 318 316 313 310 309 307 308 307 307
Wind_Speed
4 4 5 6 5 12 8 1 12 4 4 4 4 10 7 13 13 10 7 6 8 12 12 12 12 10 9 9 8 8 7 6
5 3 5 5 9 12 12 14 11 12 8 5 6 5 11 16 13 10 7 6 10 11 11 11 11 10 9 9 8 7 6 6
1 5 4 5 6 24 17 7 12 13 10 3 3 16 19 16 12 13 7 6 7 10 11 10 10 10 9 8 7 6 5 4
2 3 5 6 7 9 10 8 13 12 13 5 9 13 15 14 11 11 10 6 6 9 9 9 9 8 8 7 6 5 3 2
3 4 2 7 10 6 6 6 2 17 7 6 8 8 13 12 11 10 10 8 6 6 8 9 9 8 7 7 5 3 3 3
1 3 5 12 7 6 9 7 9 13 8 8 12 12 12 12 10 10 9 9 7 6 5 5 5 8 7 7 6 3 4 7
4 0 5 7 5 7 3 6 3 5 8 15 13 14 12 9 6 6 6 8 6 6 5 4 5 5 5 6 5 3 4 7
8 6 12 7 1 10 6 8 6 13 11 15 17 14 15 12 11 7 7 6 6 6 6 5 4 5 4 3 2 2 4 4
13 10 17 18 15 5 13 6 20 23 20 16 13 8 10 15 12 10 8 5 8 8 6 5 4 3 1 2 2 1 3 3
13 6 11 20 17 9 6 10 17 19 19 15 13 9 9 15 14 11 9 7 6 8 7 6 4 4 4 4 3 2 2 4
11 9 4 6 8 14 10 16 16 16 14 13 8 9 9 14 10 11 10 8 9 9 8 7 7 4 4 3 3 4 4 4
6 3 1 10 6 7 10 18 16 16 13 10 14 13 14 13 9 7 8 8 8 8 7 7 5 4 3 3 4 3 3 4
3 2 2 11 5 10 18 18 18 15 11 11 14 18 19 15 11 11 7 8 9 9 7 6 5 3 2 2 2 2 4 5
6 4 1 7 5 7 16 18 16 13 9 15 14 19 16 14 13 9 9 9 8 7 7 6 5 3 2 1 3 4 4 4
8 5 5 5 6 19 10 16 13 12 9 17 14 13 17 20 21 18 16 13 11 10 10 9 6 4 2 4 3 4 5 6
5 7 1 3 8 12 14 16 17 14 13 18 18 19 19 20 20 19 17 17 12 9 8 7 5 3 3 4 5 6 5 5
8 9 9 14 8 9 13 11 15 16 13 17 19 19 19 19 18 16 14 8 8 8 4 4 3 3 4 3 3 4 4 4
10 6 8 6 10 9 8 11 16 18 16 17 14 9 15 14 14 14 9 9 11 11 9 7 4 3 3 2 3 2 3 5
8 3 3 5 5 2 5 5 8 13 20 15 19 18 16 14 8 9 11 13 13 12 11 8 7 4 4 3 3 4 8 6
6 7 1 3 4 5 4 8 8 15 9 14 15 15 17 11 12 14 14 13 13 12 12 9 7 8 7 3 3 2 3 4
Wind_Direction
87 106 161 208 190 97 106 315 259 111 31 79 94 110 144 132 144 129 125 136 123 119 120 121 120 114 115 114 115 115 116 120
78 276 245 171 133 147 168 222 132 136 74 47 113 119 142 134 132 129 128 125 121 123 120 116 115 114 115 112 113 114 118 124
33 273 23 54 124 160 159 120 144 140 129 85 57 121 135 132 141 129 126 126 118 124 119 118 117 114 113 112 113 113 114 114
271 325 77 111 143 120 111 114 111 95 112 140 150 136 135 137 140 133 132 126 119 121 119 121 120 118 114 111 110 102 102 74
120 248 266 167 157 157 159 160 136 137 118 141 160 150 134 142 131 126 127 124 127 133 137 136 133 129 127 124 116 110 74 23
231 211 256 149 146 154 162 204 158 161 148 182 178 159 132 144 130 127 140 139 142 143 147 141 143 140 137 131 118 96 36 12
281 176 211 149 141 154 237 161 202 189 137 158 161 151 146 130 111 118 141 144 146 154 155 156 143 152 144 145 141 100 52 53
195 18 52 331 197 188 166 173 119 114 112 143 154 159 153 154 155 162 164 155 154 165 167 172 167 148 152 162 164 157 110 78
277 173 150 210 206 210 140 164 152 149 149 155 158 151 151 166 158 166 161 159 178 170 164 183 159 154 156 201 177 180 109 117
270 242 160 198 186 167 171 174 157 151 156 158 162 163 164 148 145 142 142 151 146 134 139 169 158 162 177 181 178 183 200 167
235 237 222 122 163 158 172 152 151 152 165 171 144 162 142 149 144 145 140 160 122 126 148 140 129 148 153 173 190 212 217 217
219 309 129 112 110 95 165 154 152 164 183 136 139 137 132 142 144 139 148 155 136 137 147 147 143 153 153 156 175 207 211 233
1 323 106 119 68 149 163 160 165 175 177 146 136 137 148 155 154 153 182 147 150 151 152 137 147 149 138 238 243 219 231 259
282 339 338 96 200 168 168 165 170 168 158 148 156 151 157 161 156 165 159 150 164 160 153 152 176 182 201 277 357 335 332 356
299 218 199 125 205 186 182 169 168 177 160 162 165 167 168 165 165 170 165 166 175 167 167 180 175 182 164 44 43 44 53 44
268 295 235 222 226 154 184 170 176 186 172 176 175 182 174 171 172 167 173 177 167 160 158 157 166 145 117 69 54 58 39 59
258 255 192 210 186 217 178 186 183 191 187 183 188 184 182 179 173 173 179 115 114 128 115 104 64 57 34 50 47 64 52 53
285 262 158 177 216 216 154 202 192 194 200 194 188 184 188 182 175 180 110 108 90 89 81 77 74 60 72 32 36 62 23 29
228 320 24 109 337 209 234 210 213 210 204 199 190 187 186 184 141 105 100 101 102 96 85 75 74 73 40 28 21 1 9 8
46 47 315 35 262 317 298 306 198 233 226 217 203 189 183 118 99 102 101 101 93 87 81 72 69 72 70 76 36 347 345 7